This is the latest recevied weather packets stored in our database for station/object N9WHM. If no packets are shown the sender has not sent any weather packets the latest 10 day(s).
| Time | Temp. | Humidity | Pressure | Rain* | Wind** | Luminosity | Snow |
|---|---|---|---|---|---|---|---|
| 1778252350 | 20° C | 31% | 1009 hPa | 0 mm | - | 431 W/m² | - |
| 1778252047 | 20° C | 31% | 1008.9 hPa | 0 mm | - | 415 W/m² | - |
| 1778251744 | 18.89° C | 33% | 1009 hPa | 0 mm | - | 402 W/m² | - |
| 1778251442 | 18.89° C | 33% | 1008.8 hPa | 0 mm | - | 389 W/m² | - |
| 1778251139 | 19.44° C | 31% | 1008.9 hPa | 0 mm | - | 374 W/m² | - |
| 1778250836 | 18.33° C | 32% | 1008.9 hPa | 0 mm | - | 360 W/m² | - |
| 1778250533 | 17.78° C | 34% | 1008.9 hPa | 0 mm | - | 346 W/m² | - |
| 1778250230 | 18.33° C | 34% | 1009.2 hPa | 0 mm | - | 331 W/m² | - |
| 1778249926 | 17.22° C | 34% | 1009.2 hPa | 0 mm | - | 317 W/m² | - |
| 1778249623 | 17.78° C | 34% | 1009.4 hPa | 0 mm | - | 303 W/m² | - |
| 1778249321 | 17.22° C | 34% | 1009.3 hPa | 0 mm | - | 287 W/m² | - |
| 1778249017 | 16.67° C | 34% | 1009.4 hPa | 0 mm | - | 276 W/m² | - |
| 1778248713 | 16.67° C | 39% | 1009.3 hPa | 0 mm | - | 262 W/m² | - |
| 1778248409 | 16.67° C | 38% | 1009.4 hPa | 0 mm | - | 247 W/m² | - |
| 1778248106 | 16.67° C | 38% | 1009.3 hPa | 0 mm | - | 64 W/m² | - |
| 1778247802 | 16.11° C | 38% | 1009.2 hPa | 0 mm | - | 60 W/m² | - |
| 1778247499 | 16.11° C | 37% | 1009.1 hPa | 0 mm | - | 68 W/m² | - |
| 1778247197 | 15.56° C | 39% | 1009.3 hPa | 0 mm | - | 220 W/m² | - |
| 1778246894 | 15° C | 39% | 1009.5 hPa | 0 mm | - | 185 W/m² | - |
| 1778246592 | 13.33° C | 42% | 1009.4 hPa | 0 mm | - | 173 W/m² | - |
| 1778246288 | 13.89° C | 43% | 1009.3 hPa | 0 mm | - | 165 W/m² | - |
| 1778245984 | 13.33° C | 43% | 1009.3 hPa | 0 mm | - | 160 W/m² | - |
| 1778245680 | 12.22° C | 45% | 1009.3 hPa | 0 mm | - | 141 W/m² | - |
| 1778245378 | 12.78° C | 45% | 1009.4 hPa | 0 mm | - | 133 W/m² | - |
| 1778245074 | 11.67° C | 49% | 1009.3 hPa | 0 mm | - | 120 W/m² | - |
* Rain latest hour (hover to see other rain measurements)
** Current wind speed in m/s (hover to see current wind gust speed)